Wind_Speed
14 15 15 16 16 16 15 14 12 12 11 9 9 8 8 8 8 9 10 11 13 11 12 19 22 23 21 23 21 23 20 15 10 7 5 9 23 21 28 30 29 27 24 23 28
16 17 17 18 18 19 20 19 19 17 16 14 14 13 12 11 10 11 11 10 11 10 11 15 23 26 26 26 19 11 6 10 7 13 13 6 12 21 21 27 24 20 25 24 26
22 22 21 21 21 22 23 23 23 23 22 20 19 18 17 15 11 15 12 11 9 9 10 12 20 27 28 29 17 9 10 0 8 6 6 1 5 16 13 26 22 14 23 23 25
28 28 28 27 26 26 26 27 27 27 27 26 24 24 22 21 13 16 14 13 12 12 11 12 14 20 31 29 22 6 10 17 7 12 2 14 16 5 14 23 22 14 16 21 24
35 34 34 34 33 32 32 31 31 31 30 31 30 28 26 24 23 21 18 16 16 15 13 13 14 16 21 29 31 17 16 16 17 16 7 3 12 11 19 29 32 27 18 16 21
35 38 38 38 39 38 37 37 36 36 36 35 35 34 33 27 28 25 24 20 18 17 16 16 15 17 17 20 21 14 22 24 23 12 4 1 15 9 18 25 31 27 17 17 15
26 26 28 30 33 38 41 42 42 41 42 41 41 40 39 31 35 27 27 28 22 20 20 19 21 20 17 17 17 16 17 15 9 9 9 2 17 12 14 29 22 19 22 18 13
19 21 24 25 27 30 32 34 38 43 46 48 48 48 43 37 42 34 34 28 29 25 21 22 23 22 21 18 17 12 12 9 12 9 5 7 15 8 19 27 28 31 28 20 17
17 22 23 24 24 25 24 26 32 37 42 46 49 54 49 44 43 41 40 36 31 28 24 24 25 24 23 20 19 16 9 4 3 7 3 14 22 16 15 24 30 34 29 25 21
23 24 26 25 27 26 30 34 35 36 37 41 45 49 46 42 43 46 46 43 40 31 29 25 25 27 25 22 15 16 18 1 7 2 9 20 21 21 14 18 30 33 37 27 23
23 24 24 25 26 26 29 32 34 31 31 38 42 45 47 45 49 47 42 43 45 45 30 25 29 26 22 22 21 15 13 15 22 21 25 21 20 21 20 16 22 30 33 35 25
26 29 31 30 32 33 34 34 32 33 35 37 37 40 44 41 50 50 45 44 43 47 35 32 32 19 21 23 22 13 16 25 27 30 28 31 33 34 33 20 19 31 36 28 30
29 32 33 34 34 36 37 37 34 37 42 36 38 39 40 43 48 50 46 43 41 38 39 38 29 20 20 19 20 17 23 27 19 25 36 30 34 29 16 21 20 30 21 24 27
32 34 35 36 37 37 41 36 38 42 45 39 34 28 32 36 47 47 46 40 40 41 37 38 32 26 18 16 13 22 20 21 15 12 20 26 29 18 10 8 19 23 21 27 17
35 36 39 35 38 41 41 38 39 41 45 33 25 19 24 30 32 41 43 44 42 41 35 39 30 20 14 19 23 28 23 18 18 20 24 25 29 14 15 17 21 22 26 30 15
37 37 39 39 39 39 40 40 42 43 40 29 19 13 15 16 16 32 38 43 42 38 38 36 28 26 25 18 20 25 31 32 25 24 26 9 17 8 20 17 22 24 30 27 24
39 40 39 39 41 40 40 42 43 39 29 12 9 19 21 11 19 13 26 33 31 35 43 37 34 29 25 24 20 23 26 21 25 24 6 6 11 5 11 16 26 26 33 30 24
40 40 40 39 42 41 41 41 39 28 19 11 21 29 24 15 15 18 23 26 37 38 30 30 39 35 32 32 29 28 29 22 22 19 11 12 14 16 18 23 25 27 31 27 34
41 40 38 41 41 40 39 40 33 23 16 19 28 26 26 23 17 19 23 30 32 37 40 42 36 23 22 28 31 29 33 23 22 21 24 16 12 8 16 31 19 23 28 32 33
42 41 38 40 39 38 39 33 24 18 16 23 28 26 27 28 17 26 29 27 35 32 42 42 33 33 30 33 28 27 24 22 30 28 27 22 17 19 21 28 34 30 36 32 31
40 42 38 37 36 39 35 23 17 16 19 26 27 31 31 31 24 25 31 28 25 34 43 18 42 28 24 36 34 38 33 34 27 29 24 17 17 18 17 14 29 36 40 32 18
39 37 35 34 34 38 30 22 18 12 13 26 34 26 34 29 34 33 23 25 36 32 30 35 45 43 39 34 31 35 34 30 37 28 30 30 26 23 22 32 31 35 33 27 20
33 32 32 31 33 35 26 13 18 18 13 25 34 33 37 38 36 39 29 32 20 27 35 27 23 29 32 25 27 30 35 26 30 28 28 35 31 29 33 34 28 36 37 35 18
29 31 30 30 32 31 24 18 15 19 19 24 29 35 35 35 40 41 35 31 32 29 21 25 27 25 34 33 29 33 25 34 33 30 25 26 34 36 27 16 25 32 41 33 26
28 28 29 31 27 17 17 14 17 17 21 24 25 26 24 27 28 41 42 34 30 11 27 25 33 35 31 37 27 26 39 35 28 30 29 28 26 26 32 30 34 37 44 35 14
26 27 27 28 21 15 19 18 19 19 20 20 22 21 25 28 28 32 36 32 34 6 10 16 33 36 31 34 33 25 10 18 37 33 38 28 35 31 40 41 39 37 41 39 19
25 27 26 24 18 19 20 15 17 18 14 18 26 23 23 16 29 34 39 45 34 25 15 15 32 34 34 35 44 22 25 24 31 45 35 34 39 45 43 46 46 40 39 38 23
Wind_Direction
269 271 269 267 271 272 273 268 261 262 260 261 263 265 271 257 245 240 221 224 226 217 186 165 160 156 147 143 132 106 88 73 36 298 243 3 326 317 334 350 342 354 19 13 6
265 264 265 268 268 268 270 269 273 269 265 263 263 265 260 262 268 257 252 232 234 222 211 189 172 166 163 157 163 94 66 112 65 321 305 80 311 314 325 323 342 354 11 11 6
270 270 269 267 265 269 269 268 267 268 271 271 268 263 263 256 258 258 254 254 249 241 236 219 194 180 174 179 201 83 340 265 156 296 347 348 312 306 309 307 336 16 356 -0 4
265 264 266 266 265 265 265 267 269 269 268 267 265 265 264 263 252 261 254 260 255 250 244 242 226 201 189 195 207 187 218 256 198 293 127 305 304 253 309 288 336 358 353 346 352
268 266 265 264 264 263 262 262 262 264 265 268 269 265 260 259 264 259 253 255 258 257 250 245 239 228 209 202 208 203 196 209 252 251 169 299 308 306 283 313 324 315 336 349 346
278 276 274 273 271 268 266 264 264 264 262 261 263 264 261 261 257 258 260 250 249 250 251 254 250 245 235 234 234 269 213 206 233 165 141 193 298 280 308 296 316 310 331 326 348
278 277 275 274 274 274 274 274 272 270 268 265 262 261 262 265 257 253 255 261 254 250 249 246 249 251 249 249 245 251 254 236 219 165 126 81 276 292 298 301 305 312 319 312 349
294 291 286 283 282 280 276 270 267 266 267 268 266 264 262 263 266 262 259 250 257 253 248 246 247 257 260 250 254 254 257 266 182 133 103 264 282 270 294 304 321 319 320 305 330
305 306 304 294 293 293 294 287 279 275 269 264 263 265 268 264 267 266 263 259 248 253 250 248 247 246 246 252 250 251 232 116 155 94 45 245 264 274 286 302 304 307 318 307 322
309 303 302 303 301 295 295 291 286 280 276 272 268 265 263 259 256 263 264 263 259 249 252 247 245 244 246 248 250 239 231 214 284 330 272 266 284 290 228 281 288 301 304 309 313
298 301 298 300 302 304 302 293 289 289 280 273 270 267 265 259 252 248 252 260 265 260 251 257 247 244 242 243 244 229 194 227 232 226 233 222 221 240 250 227 277 285 294 306 302
299 299 296 299 300 302 307 305 302 292 288 284 277 277 265 252 258 256 243 244 254 263 262 251 251 253 243 238 237 223 252 256 229 212 224 230 229 237 252 216 248 271 283 304 295
297 302 302 300 298 302 305 309 299 297 300 294 285 277 271 258 255 255 249 248 242 251 259 258 254 243 229 230 241 234 234 248 254 220 221 234 243 254 265 212 237 263 285 297 305
300 303 303 298 301 303 307 305 303 305 304 309 294 285 268 263 251 251 247 243 242 246 247 260 260 254 227 241 267 261 249 262 231 266 257 237 253 241 184 256 258 254 272 287 308
302 306 306 302 303 307 308 308 304 305 304 307 303 274 251 253 258 241 249 240 240 241 237 250 252 232 227 224 225 251 278 264 223 232 243 252 252 267 217 234 262 271 262 273 281
304 307 306 305 307 309 308 308 308 304 310 301 287 233 240 272 280 243 235 241 238 242 240 246 245 225 218 221 242 256 249 254 244 229 244 276 261 254 203 234 241 249 247 271 294
307 309 306 307 310 311 310 310 307 307 300 311 265 204 201 214 260 251 234 225 231 236 236 240 236 226 208 223 223 246 256 259 248 235 228 90 265 5 224 279 245 241 253 268 285
307 310 308 309 309 312 312 312 308 298 287 225 198 195 193 180 212 259 255 255 221 237 243 247 249 238 210 211 216 236 241 246 253 235 202 267 271 272 255 234 252 239 247 275 292
308 309 310 311 310 312 314 312 305 287 257 215 205 199 191 191 199 228 246 239 247 228 236 251 251 235 229 224 215 231 245 232 244 232 246 234 215 242 252 250 259 259 267 270 279
308 309 312 310 312 313 314 308 295 277 244 240 215 202 207 188 224 225 229 209 224 226 234 253 247 237 219 224 235 239 246 244 231 237 234 219 215 254 230 247 263 252 264 259 271
308 308 310 314 315 312 312 299 268 263 251 211 214 201 201 194 222 238 224 207 239 222 232 248 231 231 238 213 227 228 237 241 256 234 232 235 232 271 282 263 245 250 257 260 248
307 308 312 320 313 311 308 288 254 242 263 226 218 224 213 210 209 224 230 238 214 229 221 237 234 236 228 206 221 225 232 244 245 232 219 233 227 246 247 228 232 247 255 247 276
306 305 315 313 311 307 304 284 258 235 245 234 220 222 225 221 223 219 230 232 221 234 226 220 221 233 242 248 224 223 224 237 235 251 235 229 235 253 260 253 260 255 250 258 240
302 307 313 308 309 311 301 260 252 236 235 237 243 243 251 238 226 222 231 227 215 213 229 217 211 215 226 224 226 240 200 220 226 235 233 226 234 249 237 253 268 244 252 231 205
304 311 310 309 313 295 290 280 250 259 266 263 249 238 247 248 243 229 227 232 214 152 203 198 204 209 219 216 216 245 237 210 208 219 240 254 246 258 255 256 258 255 261 275 174
305 308 307 309 308 276 266 261 253 252 274 247 257 247 240 239 238 232 236 233 226 223 263 226 191 207 212 215 222 263 192 210 221 219 223 228 243 245 235 241 240 255 258 273 171
303 305 306 306 283 258 268 246 261 264 285 243 246 240 242 236 235 233 231 232 242 244 258 206 204 206 212 220 221 232 231 220 224 215 216 217 231 243 245 240 247 264 268 275 232
Height
5932 5933 5934 5934 5934 5934 5934 5934 5935 5935 5935 5934 5934 5934 5935 5936 5936 5935 5935 5935 5935 5936 5937 5938 5938 5940 5940 5941 5939 5934 5938 5941 5945 5944 5944 5943 5938 5930 5926 5927 5926 5924 5921 5918 5912
5930 5931 5931 5931 5931 5932 5932 5932 5932 5932 5933 5933 5934 5933 5933 5934 5935 5935 5936 5934 5934 5934 5934 5935 5936 5936 5937 5939 5940 5933 5937 5938 5943 5944 5943 5942 5942 5932 5931 5928 5926 5926 5920 5917 5915
5926 5927 5928 5928 5928 5929 5929 5930 5930 5930 5930 5930 5931 5932 5932 5932 5933 5932 5933 5933 5933 5933 5932 5933 5934 5933 5935 5935 5936 5934 5937 5938 5940 5941 5941 5941 5938 5933 5929 5927 5926 5927 5922 5920 5918
5921 5921 5922 5923 5923 5924 5924 5925 5926 5926 5926 5926 5927 5928 5929 5929 5933 5930 5931 5930 5930 5930 5931 5931 5932 5933 5932 5932 5933 5929 5932 5936 5936 5936 5938 5938 5938 5936 5929 5925 5924 5925 5923 5921 5919
5915 5915 5916 5917 5917 5918 5918 5918 5919 5920 5921 5921 5921 5923 5924 5926 5927 5927 5928 5928 5928 5928 5928 5929 5929 5929 5930 5929 5927 5923 5926 5928 5929 5930 5933 5934 5935 5934 5928 5923 5922 5920 5921 5920 5920
5909 5910 5910 5910 5911 5911 5912 5912 5912 5913 5914 5915 5915 5916 5918 5922 5920 5922 5923 5924 5924 5924 5925 5924 5926 5925 5926 5926 5925 5924 5922 5921 5924 5929 5931 5930 5934 5932 5930 5923 5921 5918 5917 5918 5919
5903 5903 5903 5903 5903 5904 5904 5905 5905 5906 5906 5907 5907 5908 5910 5916 5912 5917 5918 5919 5920 5920 5921 5921 5920 5920 5920 5921 5922 5923 5920 5920 5920 5926 5927 5928 5932 5931 5930 5925 5921 5917 5917 5916 5917
5897 5897 5897 5896 5895 5896 5895 5895 5895 5896 5896 5898 5898 5899 5903 5908 5905 5911 5910 5913 5913 5914 5915 5916 5916 5917 5917 5918 5919 5920 5920 5922 5923 5922 5924 5928 5930 5929 5928 5922 5917 5915 5915 5914 5913
5894 5894 5893 5892 5890 5890 5889 5888 5887 5888 5887 5887 5889 5890 5898 5899 5901 5902 5902 5905 5906 5907 5909 5910 5911 5911 5912 5913 5914 5917 5919 5919 5923 5923 5923 5925 5925 5929 5925 5918 5917 5914 5912 5910 5909
5890 5889 5888 5886 5884 5884 5882 5882 5879 5879 5878 5879 5879 5880 5887 5890 5889 5891 5893 5896 5898 5901 5903 5904 5904 5905 5907 5908 5911 5913 5913 5913 5916 5921 5924 5924 5922 5921 5923 5920 5917 5912 5910 5909 5908
5886 5884 5882 5881 5878 5876 5877 5874 5872 5872 5868 5870 5868 5868 5872 5876 5873 5877 5884 5887 5889 5892 5897 5897 5897 5900 5902 5903 5905 5906 5907 5910 5912 5914 5916 5917 5917 5917 5919 5920 5916 5912 5910 5907 5907
5880 5878 5876 5873 5871 5868 5867 5865 5862 5860 5859 5858 5859 5858 5860 5864 5862 5868 5871 5876 5879 5881 5889 5889 5890 5897 5897 5897 5897 5899 5902 5903 5904 5907 5910 5911 5911 5912 5914 5915 5916 5911 5908 5907 5903
5874 5871 5869 5865 5864 5860 5857 5856 5852 5849 5849 5852 5849 5848 5852 5854 5854 5856 5862 5866 5870 5874 5876 5881 5888 5890 5890 5893 5894 5895 5897 5897 5899 5901 5902 5903 5903 5906 5907 5908 5910 5908 5907 5903 5901
5867 5864 5862 5859 5856 5852 5849 5846 5842 5838 5835 5841 5838 5841 5839 5840 5840 5849 5852 5859 5861 5864 5869 5871 5879 5883 5883 5886 5891 5892 5894 5893 5894 5896 5897 5901 5896 5899 5902 5905 5904 5904 5904 5900 5901
5859 5857 5852 5851 5847 5843 5839 5836 5832 5828 5825 5828 5828 5826 5830 5829 5837 5838 5846 5848 5849 5855 5861 5862 5870 5875 5878 5883 5887 5888 5889 5888 5889 5890 5891 5892 5891 5893 5896 5898 5900 5899 5899 5896 5897
5851 5849 5844 5841 5838 5835 5829 5825 5821 5818 5815 5818 5818 5821 5821 5820 5826 5831 5834 5840 5846 5848 5851 5855 5863 5867 5872 5878 5882 5883 5883 5883 5884 5884 5882 5887 5888 5888 5889 5892 5894 5895 5892 5891 5891
5843 5840 5836 5832 5828 5825 5820 5815 5812 5807 5805 5811 5810 5812 5811 5813 5820 5823 5827 5830 5835 5840 5842 5848 5851 5858 5864 5869 5875 5876 5876 5876 5877 5878 5882 5884 5886 5885 5885 5884 5886 5890 5887 5887 5889
5835 5831 5826 5824 5818 5814 5810 5806 5801 5798 5798 5800 5798 5797 5804 5812 5817 5823 5824 5825 5829 5835 5838 5841 5843 5849 5855 5859 5866 5869 5871 5872 5870 5873 5875 5877 5879 5881 5883 5884 5884 5885 5885 5885 5885
5825 5822 5819 5814 5810 5805 5801 5796 5791 5789 5791 5790 5788 5794 5800 5805 5812 5816 5818 5821 5824 5828 5831 5834 5835 5843 5847 5854 5858 5861 5862 5867 5867 5868 5869 5872 5877 5878 5877 5873 5877 5878 5881 5880 5877
5816 5813 5810 5805 5800 5796 5792 5787 5783 5783 5786 5786 5790 5791 5794 5800 5799 5797 5803 5808 5807 5821 5824 5824 5827 5834 5838 5845 5851 5854 5858 5861 5860 5861 5862 5866 5870 5870 5874 5870 5866 5872 5872 5873 5872
5808 5804 5800 5797 5792 5787 5783 5779 5779 5779 5780 5781 5785 5785 5788 5791 5790 5793 5798 5803 5800 5804 5806 5806 5817 5821 5831 5833 5839 5845 5848 5852 5855 5858 5859 5862 5867 5865 5865 5867 5867 5866 5863 5865 5865
5799 5796 5792 5788 5785 5778 5775 5772 5773 5774 5776 5777 5778 5780 5783 5784 5785 5787 5791 5791 5794 5799 5803 5807 5806 5812 5816 5823 5832 5836 5841 5844 5846 5850 5853 5855 5857 5858 5860 5860 5860 5858 5860 5863 5861
5791 5788 5785 5781 5776 5771 5768 5769 5768 5769 5772 5773 5772 5772 5775 5778 5780 5783 5786 5789 5791 5793 5789 5800 5806 5810 5815 5822 5825 5827 5827 5836 5841 5844 5845 5849 5852 5850 5851 5856 5860 5854 5856 5853 5851
5784 5780 5779 5772 5768 5764 5762 5762 5762 5763 5764 5764 5766 5769 5770 5774 5776 5778 5780 5782 5783 5783 5792 5794 5797 5802 5809 5814 5819 5820 5820 5826 5833 5837 5839 5842 5846 5844 5850 5850 5849 5843 5843 5815 5825
5777 5774 5770 5765 5761 5759 5759 5759 5759 5760 5759 5760 5759 5761 5764 5766 5769 5772 5774 5777 5777 5774 5778 5779 5790 5797 5800 5807 5814 5806 5812 5819 5824 5831 5835 5838 5839 5841 5844 5845 5841 5837 5832 5812 5829
5771 5767 5763 5759 5756 5754 5751 5752 5752 5754 5753 5755 5753 5756 5756 5757 5762 5766 5769 5773 5773 5776 5779 5777 5787 5791 5797 5801 5801 5794 5807 5806 5813 5816 5822 5828 5829 5830 5836 5832 5832 5830 5834 5837 5835
5763 5761 5757 5753 5750 5749 5748 5749 5748 5748 5748 5748 5749 5751 5752 5753 5754 5756 5761 5764 5768 5771 5776 5779 5783 5786 5792 5794 5795 5800 5795 5799 5802 5806 5816 5818 5818 5815 5822 5825 5828 5825 5826 5829 5834